sat.trackr.live / text

‹ back to catalog

EUTELSAT 53A

NORAD 40277 · 2014-064A

PAYLOAD ACTIVE UNKNOWN

§ Identity

Operator
Country
EUTE
Launch date
2014-10-21
Launch site
TYMSC
Launch vehicle
Mass (kg)
RCS (m²)
22.59

Purposes: comms

External: N2YO · Heavens-Above · Gunter

§ Orbital elements

Epoch: 2026-05-24T22:51:40.315680Z

Period
1,436.09 min
Inclination
0.0164°
Eccentricity
0.0000299
Mean motion
1.00272186 rev/d
Perigee alt
35,785.2 km
Apogee alt
35,787.7 km
Semi-major
42,164.6 km
B*
0.0000e+0
RAAN
286.3028°
Arg perigee
268.5614°
Mean anomaly
83.6036°
Rev number
4,133

§ Raw data

EUTELSAT 53A1 40277U 14064A   26144.95254995  .00000095  00000+0  00000+0 0  99922 40277   0.0164 286.3028 0000299 268.5614  83.6036  1.00272186 41338

JSON: /api/v1/satellites/40277 · /tle

For live sub-satellite position, see the globe view (requires WebGL).

§ Visibility from observer

Set your observer location to see the next 7 days of passes ≥ 10°. The values pass through the URL so the page stays shareable.

No JS? Fill the form by hand. The geolocation button needs JavaScript.